THY2TK HTKJ-FALE

Flight info

Callsign THY2TK
Flight time N/A
Altitude 32000
Route LOSIN UM315 UVKAT/N0471F340 UM315 DVL UG656 VMA UB529 RBV/N0416F240 B529 ITMIL ITMIL1B
Aircraft B738/M-SDE2E3FGHIRWXY/LB1

Departure

Time 2026-05-07 16:31
Airport Kilimanjaro International Airport (HTKJ)

Arrival

Time N/A
Airport King Shaka International Airport (FALE)
Time Latitude Longitude Altitude Speed Heading
2026-05-07 16:14 -3.42535 37.06378 2935 ft 0 kts 43°
2026-05-07 16:24 -3.42541 37.06372 2928 ft 4 kts
2026-05-07 16:24 -3.42554 37.06374 2931 ft 2 kts 12°
2026-05-07 16:25 -3.42577 37.06366 2927 ft 4 kts 40°
2026-05-07 16:25 -3.42589 37.06346 2925 ft 4 kts 85°
2026-05-07 16:25 -3.42589 37.06341 2925 ft 1 kts 87°
2026-05-07 16:27 -3.42589 37.06344 2925 ft 2 kts 87°
2026-05-07 16:27 -3.42588 37.06368 2926 ft 6 kts 87°
2026-05-07 16:28 -3.42597 37.06417 2928 ft 9 kts 130°
2026-05-07 16:28 -3.42665 37.06435 2934 ft 12 kts 176°
2026-05-07 16:28 -3.42728 37.06390 2935 ft 13 kts 254°
2026-05-07 16:28 -3.42735 37.06296 2935 ft 14 kts 267°
2026-05-07 16:29 -3.42740 37.06191 2934 ft 16 kts 267°
2026-05-07 16:29 -3.42745 37.06074 2937 ft 17 kts 268°
2026-05-07 16:29 -3.42751 37.05952 2938 ft 18 kts 268°
2026-05-07 16:29 -3.42808 37.05848 2937 ft 18 kts 206°
2026-05-07 16:30 -3.42938 37.05838 2936 ft 18 kts 175°
2026-05-07 16:30 -3.43009 37.05874 2931 ft 12 kts 98°
2026-05-07 16:30 -3.43009 37.05895 2932 ft 2 kts 88°
2026-05-07 16:30 -3.42999 37.06124 2937 ft 67 kts 87°
2026-05-07 16:31 -3.42981 37.06533 2936 ft 109 kts 87°
2026-05-07 16:31 -3.42941 37.07493 2923 ft 165 kts 88°
2026-05-07 16:31 -3.42916 37.08774 3163 ft 191 kts 91°
2026-05-07 16:31 -3.42966 37.10081 4032 ft 188 kts 92°
2026-05-07 16:32 -3.43025 37.11836 4985 ft 193 kts 91°
2026-05-07 16:32 -3.43111 37.13193 5589 ft 201 kts 104°
2026-05-07 16:32 -3.43432 37.14093 5864 ft 208 kts 121°
2026-05-07 16:32 -3.44572 37.15073 6016 ft 232 kts 160°
2026-05-07 16:33 -3.46162 37.15172 6617 ft 233 kts 191°
2026-05-07 16:33 -3.47650 37.14430 6980 ft 250 kts 220°
2026-05-07 16:33 -3.48819 37.13127 7552 ft 254 kts 233°
2026-05-07 16:33 -3.49820 37.11625 8026 ft 268 kts 236°
2026-05-07 16:34 -3.50847 37.09984 8380 ft 286 kts 237°
2026-05-07 16:34 -3.51867 37.08257 9107 ft 290 kts 238°
2026-05-07 16:34 -3.52850 37.06481 9716 ft 294 kts 250°
2026-05-07 16:34 -3.53220 37.04467 10281 ft 298 kts 266°
2026-05-07 16:35 -3.53332 37.02345 10447 ft 318 kts 268°
2026-05-07 16:35 -3.53411 37.00069 10594 ft 336 kts 268°
2026-05-07 16:35 -3.53491 36.97670 10729 ft 354 kts 268°
2026-05-07 16:35 -3.53581 36.95153 10910 ft 368 kts 268°
2026-05-07 16:36 -3.53682 36.92564 11247 ft 376 kts 268°
2026-05-07 16:36 -3.53791 36.89935 11745 ft 379 kts 268°
2026-05-07 16:36 -3.53904 36.87299 12287 ft 380 kts 268°
2026-05-07 16:36 -3.54029 36.84648 12796 ft 383 kts 265°
2026-05-07 16:37 -3.54733 36.82078 13242 ft 388 kts 242°
2026-05-07 16:37 -3.56424 36.79977 13703 ft 392 kts 221°
2026-05-07 16:37 -3.58688 36.78479 14157 ft 394 kts 208°
2026-05-07 16:37 -3.61121 36.77197 14566 ft 397 kts 207°
2026-05-07 16:38 -3.63593 36.75933 14927 ft 401 kts 207°
2026-05-07 16:38 -3.66090 36.74662 15317 ft 403 kts 207°
2026-05-07 16:38 -3.68595 36.73380 15709 ft 406 kts 207°
2026-05-07 16:38 -3.71114 36.72079 16100 ft 409 kts 207°
2026-05-07 16:39 -3.73617 36.70777 16479 ft 411 kts 207°
2026-05-07 16:39 -3.76164 36.69445 16847 ft 414 kts 207°
2026-05-07 16:39 -3.78725 36.68102 17250 ft 416 kts 207°
2026-05-07 16:39 -3.81302 36.66747 17567 ft 420 kts 207°
2026-05-07 16:40 -3.83899 36.65381 17947 ft 422 kts 207°
2026-05-07 16:40 -3.86500 36.64012 18325 ft 424 kts 207°
2026-05-07 16:40 -3.89125 36.62631 18603 ft 427 kts 207°
2026-05-07 16:40 -3.91761 36.61244 18929 ft 428 kts 207°
2026-05-07 16:41 -3.94378 36.59867 19214 ft 431 kts 207°
2026-05-07 16:41 -3.97037 36.58468 19514 ft 432 kts 207°
2026-05-07 16:41 -3.99704 36.57065 19821 ft 434 kts 207°
2026-05-07 16:41 -4.02380 36.55656 20121 ft 435 kts 207°
2026-05-07 16:42 -4.05072 36.54239 20413 ft 437 kts 207°
2026-05-07 16:42 -4.07769 36.52820 20697 ft 439 kts 207°
2026-05-07 16:42 -4.10482 36.51392 20960 ft 441 kts 207°
2026-05-07 16:42 -4.13206 36.49958 21226 ft 443 kts 207°
2026-05-07 16:43 -4.15940 36.48519 21492 ft 445 kts 207°
2026-05-07 16:43 -4.18684 36.47075 21762 ft 446 kts 207°
2026-05-07 16:43 -4.21401 36.45644 22019 ft 448 kts 207°
2026-05-07 16:43 -4.24170 36.44186 22268 ft 449 kts 207°
2026-05-07 16:44 -4.26942 36.42726 22519 ft 451 kts 207°
2026-05-07 16:44 -4.29731 36.41257 22757 ft 453 kts 207°
2026-05-07 16:44 -4.32520 36.39788 23002 ft 454 kts 207°
2026-05-07 16:44 -4.35326 36.38310 23235 ft 456 kts 207°
2026-05-07 16:45 -4.38139 36.36828 23453 ft 457 kts 207°
2026-05-07 16:45 -4.40959 36.35343 23672 ft 459 kts 207°
2026-05-07 16:45 -4.43790 36.33851 23851 ft 460 kts 207°
2026-05-07 16:45 -4.46630 36.32355 24028 ft 462 kts 207°
2026-05-07 16:46 -4.49476 36.30855 24220 ft 463 kts 207°
2026-05-07 16:46 -4.52326 36.29353 24407 ft 464 kts 207°
2026-05-07 16:46 -4.55183 36.27847 24591 ft 465 kts 207°
2026-05-07 16:46 -4.58051 36.26335 24774 ft 466 kts 207°
2026-05-07 16:47 -4.60925 36.24820 24966 ft 466 kts 207°
2026-05-07 16:47 -4.63786 36.23312 25270 ft 463 kts 207°
2026-05-07 16:47 -4.66645 36.21804 25445 ft 465 kts 207°
2026-05-07 16:47 -4.69511 36.20293 25564 ft 467 kts 207°
2026-05-07 16:48 -4.72362 36.18790 25695 ft 469 kts 207°
2026-05-07 16:48 -4.75256 36.17263 25862 ft 469 kts 207°
2026-05-07 16:48 -4.78148 36.15738 26033 ft 470 kts 207°
2026-05-07 16:48 -4.81046 36.14209 26200 ft 471 kts 207°
2026-05-07 16:49 -4.83952 36.12676 26346 ft 472 kts 207°
2026-05-07 16:49 -4.86872 36.11135 26484 ft 473 kts 207°
2026-05-07 16:49 -4.89787 36.09597 26623 ft 474 kts 207°
2026-05-07 16:49 -4.92710 36.08055 26769 ft 475 kts 207°
2026-05-07 16:50 -4.95639 36.06509 26905 ft 476 kts 207°
2026-05-07 16:50 -4.98577 36.04958 27043 ft 477 kts 207°
2026-05-07 16:50 -5.01518 36.03406 27184 ft 478 kts 207°
2026-05-07 16:50 -5.04466 36.01849 27314 ft 479 kts 207°
2026-05-07 16:51 -5.07425 36.00286 27439 ft 480 kts 207°
2026-05-07 16:51 -5.10380 35.98726 27560 ft 481 kts 207°
2026-05-07 16:51 -5.13308 35.97180 27681 ft 482 kts 207°
2026-05-07 16:51 -5.16276 35.95612 27807 ft 483 kts 207°
2026-05-07 16:52 -5.19248 35.94042 27929 ft 483 kts 207°
2026-05-07 16:52 -5.22224 35.92470 28082 ft 483 kts 207°
2026-05-07 16:52 -5.25196 35.90899 28281 ft 482 kts 207°
2026-05-07 16:52 -5.28166 35.89329 28481 ft 482 kts 207°
2026-05-07 16:53 -5.31129 35.87763 28637 ft 482 kts 207°
2026-05-07 16:53 -5.34098 35.86196 28798 ft 482 kts 206°
2026-05-07 16:53 -5.37169 35.84871 28945 ft 481 kts 198°
2026-05-07 16:53 -5.40396 35.84001 29123 ft 480 kts 189°
2026-05-07 16:54 -5.43702 35.83566 29323 ft 479 kts 186°
2026-05-07 16:54 -5.47025 35.83203 29477 ft 479 kts 186°
2026-05-07 16:54 -5.50339 35.82842 29632 ft 479 kts 186°
2026-05-07 16:54 -5.53654 35.82460 29810 ft 479 kts 186°
2026-05-07 16:55 -5.56961 35.82058 30010 ft 479 kts 187°
2026-05-07 16:55 -5.60270 35.81644 30186 ft 479 kts 187°
2026-05-07 16:55 -5.63572 35.81230 30341 ft 478 kts 187°
2026-05-07 16:55 -5.66883 35.80816 30507 ft 478 kts 186°
2026-05-07 16:56 -5.70184 35.80410 30669 ft 477 kts 186°
2026-05-07 16:56 -5.73445 35.80013 30844 ft 477 kts 186°
2026-05-07 16:56 -5.80030 35.79211 31163 ft 476 kts 186°
2026-05-07 16:57 -5.83320 35.78810 31333 ft 476 kts 186°
2026-05-07 16:57 -5.86606 35.78409 31499 ft 476 kts 186°
2026-05-07 16:57 -5.89890 35.78007 31670 ft 475 kts 186°
2026-05-07 16:57 -5.93177 35.77604 31838 ft 475 kts 186°
2026-05-07 16:58 -5.96448 35.77204 31992 ft 473 kts 186°
2026-05-07 16:58 -5.99722 35.76804 32015 ft 474 kts 186°
2026-05-07 16:58 -6.06288 35.76000 32024 ft 475 kts 186°
2026-05-07 16:59 -6.12852 35.75196 32019 ft 475 kts 186°
2026-05-07 16:59 -6.19392 35.74217 32017 ft 476 kts 191°
2026-05-07 17:00 -6.25791 35.72637 32021 ft 477 kts 193°
2026-05-07 17:00 -6.32210 35.70945 32019 ft 477 kts 193°
2026-05-07 17:01 -6.38639 35.69294 32015 ft 477 kts 193°
2026-05-07 17:01 -6.45072 35.67681 32022 ft 476 kts 193°
2026-05-07 17:02 -6.51508 35.66080 32015 ft 476 kts 193°
2026-05-07 17:02 -6.57906 35.64488 32006 ft 476 kts 193°